Cas;Teplota [C];Tlak [hPa];Svetlo [lux];Rychlost vetru [km/h];Smer vetru [stupne]
2019-12-09 00:00:01;8.35;1001.07;9;0;0
2019-12-09 00:00:31;8.52;1001.05;8;0;0
2019-12-09 00:01:01;8.51;1001.04;8;0;0
2019-12-09 00:01:31;8.61;1001.04;10;0;0
2019-12-09 00:02:00;8.43;1001.03;9;0;0
2019-12-09 00:02:31;8.61;1001.03;10;0;0
2019-12-09 00:03:01;8.66;1001.03;9;0;0
2019-12-09 00:03:31;8.44;1001.05;8;0;0
2019-12-09 00:04:01;8.5;1001.04;8;0;0
2019-12-09 00:04:31;8.57;1001.05;8;0;0
2019-12-09 00:05:01;8.54;1001.04;9;0;0
2019-12-09 00:05:32;8.65;1001.03;8;0;0
2019-12-09 00:06:01;8.55;1001.03;8;0;0
2019-12-09 00:06:31;8.55;1001.03;8;0;0
2019-12-09 00:07:01;8.62;1001.04;9;0;0
2019-12-09 00:07:31;8.43;1001.04;8;0;0
2019-12-09 00:08:01;8.59;1001.03;9;0;0
2019-12-09 00:08:31;8.44;1001.03;8;0;0
2019-12-09 00:09:01;8.55;1001.03;8;0;0
2019-12-09 00:09:31;8.53;1001.03;8;0;0
2019-12-09 00:10:01;8.58;1001.03;8;0;0
2019-12-09 00:10:31;8.6;1001.03;10;0;0
2019-12-09 00:11:01;8.53;1001.03;9;0;0
2019-12-09 00:11:31;8.46;1001.03;8;0;0
2019-12-09 00:12:01;8.49;1001.03;9;0;0
2019-12-09 00:12:31;8.55;1001.03;8;0;0
2019-12-09 00:13:01;8.48;1001.03;8;0;0
2019-12-09 00:13:32;8.52;1001.03;9;0;0
2019-12-09 00:14:01;8.47;1001.03;9;0;0
2019-12-09 00:14:31;8.46;1001.03;8;0;0
2019-12-09 00:15:01;8.53;1001.01;9;0;0
2019-12-09 00:15:31;8.46;1001.01;8;0;0
2019-12-09 00:16:01;8.43;1001;7;0;0
2019-12-09 00:16:31;8.52;1000.98;9;0;0
2019-12-09 00:17:01;8.44;1000.98;9;0;0
2019-12-09 00:17:31;8.53;1000.95;8;0;0
2019-12-09 00:18:01;8.48;1000.96;8;0;0
2019-12-09 00:18:31;8.56;1000.97;7;0;0
2019-12-09 00:19:01;8.52;1000.99;8;0;0
2019-12-09 00:19:31;8.45;1001.01;8;0;0
2019-12-09 00:20:01;8.5;1001;9;0;0
2019-12-09 00:20:31;8.51;1000.99;8;0;0
2019-12-09 00:21:01;8.54;1001;8;0;0
2019-12-09 00:21:32;8.46;1001;8;0;0
2019-12-09 00:22:01;8.44;1000.98;7;0;0
2019-12-09 00:22:31;8.34;1000.97;7;0;0
2019-12-09 00:23:01;8.51;1000.96;8;0;0
2019-12-09 00:23:31;8.62;1000.96;8;0;0
2019-12-09 00:24:01;8.43;1000.98;8;0;0
2019-12-09 00:24:31;8.4;1000.98;7;0;0
2019-12-09 00:25:01;8.55;1000.97;9;0;0
2019-12-09 00:25:31;8.58;1000.95;8;0;0
2019-12-09 00:26:01;8.31;1000.93;8;0;0
2019-12-09 00:26:31;8.33;1000.92;8;0;0
2019-12-09 00:27:01;8.35;1000.9;8;0;0
2019-12-09 00:27:31;8.5;1000.84;8;0;0
2019-12-09 00:28:01;8.66;1000.88;8;0;0
2019-12-09 00:28:31;8.36;1000.9;8;0;0
2019-12-09 00:29:02;8.46;1000.9;8;0;0
2019-12-09 00:29:32;8.36;1000.84;7;0;0
2019-12-09 00:30:01;8.4;1000.82;8;0;0
2019-12-09 00:30:31;8.44;1000.82;9;0;0
2019-12-09 00:31:01;8.3;1000.84;8;0;0
2019-12-09 00:31:31;8.42;1000.87;9;0;0
2019-12-09 00:32:01;8.43;1000.88;9;0;0
2019-12-09 00:32:31;8.43;1000.9;10;0;0
2019-12-09 00:33:01;8.47;1000.92;9;0;0
2019-12-09 00:33:31;8.41;1000.92;9;0;0
2019-12-09 00:34:01;8.32;1000.95;9;0;0
2019-12-09 00:34:31;8.4;1000.97;8;0;0
2019-12-09 00:35:01;8.37;1000.95;9;0;0
2019-12-09 00:35:31;8.36;1000.94;8;0;0
2019-12-09 00:36:01;8.34;1000.96;8;0;0
2019-12-09 00:36:31;8.31;1000.99;8;0;0
2019-12-09 00:37:01;8.43;1001;8;0;0
2019-12-09 00:37:32;8.53;1001.01;9;0;0
2019-12-09 00:38:02;8.49;1001.01;8;0;0
2019-12-09 00:38:31;8.48;1001.01;9;0;0
2019-12-09 00:39:01;8.37;1001.02;8;0;0
2019-12-09 00:39:31;8.37;1001.02;8;0;0
2019-12-09 00:40:01;8.38;1001.02;8;0;0
2019-12-09 00:40:31;8.4;1001.03;9;0;0
2019-12-09 00:41:01;8.34;1001.03;9;0;0
2019-12-09 00:41:31;8.31;1001.03;9;0;0
2019-12-09 00:42:01;8.33;1001.03;9;0;0
2019-12-09 00:42:31;8.27;1000.98;8;0;0
2019-12-09 00:43:01;8.29;1001;9;0;0
2019-12-09 00:43:31;8.22;1001.01;8;0;0
2019-12-09 00:44:01;8.3;1001.02;8;0;0
2019-12-09 00:44:31;8.21;1001.01;9;0;0
2019-12-09 00:45:01;8.27;1001;8;0;0
2019-12-09 00:45:31;8.26;1000.99;8;0;0
2019-12-09 00:46:01;8.36;1001;8;0;0
2019-12-09 00:46:31;8.35;1001.01;9;0;0
2019-12-09 00:47:01;8.3;1001.02;8;0;0
2019-12-09 00:47:32;8.3;1001.01;7;0;0
2019-12-09 00:48:01;8.27;1001.02;8;0;0
2019-12-09 00:48:31;8.23;1001.02;8;0;0
2019-12-09 00:49:01;8.06;1001.02;9;0;0
2019-12-09 00:49:31;8.09;1001.02;9;0;0
2019-12-09 00:50:01;8.22;1001.03;9;0;0
2019-12-09 00:50:31;8.23;1001.03;8;0;0
2019-12-09 00:51:01;8.31;1001.03;8;0;0
2019-12-09 00:51:31;8.32;1001.03;8;0;0
2019-12-09 00:52:01;8.26;1001.03;9;0;0
2019-12-09 00:52:31;8.14;1001.03;8;0;0
2019-12-09 00:53:01;8.16;1001.03;8;0;0
2019-12-09 00:53:31;8.13;1001.03;8;0;0
2019-12-09 00:54:01;8.19;1001.01;8;0;0
2019-12-09 00:54:31;8.1;1001.02;9;0;0
2019-12-09 00:55:01;8.14;1001.02;9;0;0
2019-12-09 00:55:32;8.14;1001.02;8;0;0
2019-12-09 00:56:02;8.15;1001.03;8;0;0
2019-12-09 00:56:31;8.15;1001.04;9;0;0
2019-12-09 00:57:01;8.14;1001.06;9;0;0
2019-12-09 00:57:31;8.24;1001.04;9;0;0
2019-12-09 00:58:01;8.06;1001.07;9;0;0
2019-12-09 00:58:31;8.11;1001.08;8;0;0
2019-12-09 00:59:01;8.13;1001.07;8;0;0
2019-12-09 00:59:31;8.14;1001.1;9;0;0
2019-12-09 01:00:01;8.03;1001.13;9;0;0
2019-12-09 01:00:31;8.23;1001.14;10;0;0
2019-12-09 01:01:01;8.22;1001.12;9;0;0
2019-12-09 01:01:31;8.18;1001.15;10;0;0
2019-12-09 01:02:01;8.18;1001.14;9;0;0
2019-12-09 01:02:31;8.06;1001.12;9;0;0
2019-12-09 01:03:01;8.03;1001.17;9;0;0
2019-12-09 01:03:31;8.08;1001.24;10;0;0
2019-12-09 01:04:01;8.07;1001.31;9;0;0
2019-12-09 01:04:33;8.06;1001.34;8;0;0
2019-12-09 01:05:02;7.99;1001.35;9;0;0
2019-12-09 01:05:31;8.09;1001.44;9;0;0
2019-12-09 01:06:01;8.07;1001.48;9;0;0
2019-12-09 01:06:31;7.96;1001.47;8;0;0
2019-12-09 01:07:01;7.89;1001.54;9;0;0
2019-12-09 01:07:31;7.84;1001.56;9;0;0
2019-12-09 01:08:01;7.91;1001.54;10;0;0
2019-12-09 01:08:31;7.9;1001.61;8;0;0
2019-12-09 01:09:01;7.85;1001.64;8;0;0
2019-12-09 01:09:31;7.79;1001.63;7;0;0
2019-12-09 01:10:01;7.71;1001.6;8;0;0
2019-12-09 01:10:31;7.74;1001.61;7;0;0
2019-12-09 01:11:01;7.86;1001.59;9;0;0
2019-12-09 01:11:31;7.84;1001.62;7;0;0
2019-12-09 01:12:01;7.78;1001.54;8;0;0
2019-12-09 01:12:31;7.77;1001.5;9;0;0
2019-12-09 01:13:01;7.87;1001.49;8;0;0
2019-12-09 01:13:32;7.78;1001.56;8;0;0
2019-12-09 01:14:01;7.81;1001.56;8;0;0
2019-12-09 01:14:31;7.65;1001.58;9;0;0
2019-12-09 01:15:02;7.75;1001.55;9;0;0
2019-12-09 01:15:31;7.72;1001.48;8;0;0
2019-12-09 01:16:01;7.71;1001.44;8;0;0
2019-12-09 01:16:31;7.72;1001.4;9;0;0
2019-12-09 01:17:01;7.75;1001.35;8;0;0
2019-12-09 01:17:31;7.71;1001.33;8;0;0
2019-12-09 01:18:01;7.86;1001.32;8;2.61;0
2019-12-09 01:18:31;7.85;1001.32;8;0;0
2019-12-09 01:19:01;7.79;1001.24;9;2.65;0
2019-12-09 01:19:31;7.59;1001.25;8;0;0
2019-12-09 01:20:01;7.67;1001.27;8;0;0
2019-12-09 01:20:31;7.75;1001.31;10;0;0
2019-12-09 01:21:01;7.7;1001.39;9;0;0
2019-12-09 01:21:31;7.78;1001.32;9;0;0
2019-12-09 01:22:02;7.82;1001.36;9;0;0
2019-12-09 01:22:32;7.74;1001.32;8;0;0
2019-12-09 01:23:01;7.65;1001.28;9;0;0
2019-12-09 01:23:31;7.68;1001.24;8;0;0
2019-12-09 01:24:01;7.69;1001.25;9;0;0
2019-12-09 01:24:31;7.6;1001.23;9;0;0
2019-12-09 01:25:01;7.61;1001.19;8;0;0
2019-12-09 01:25:31;7.78;1001.17;8;0;0
2019-12-09 01:26:01;7.67;1001.17;8;0;0
2019-12-09 01:26:31;7.68;1001.18;9;0;0
2019-12-09 01:27:01;7.64;1001.17;8;0;0
2019-12-09 01:27:31;7.62;1001.14;7;0;0
2019-12-09 01:28:01;7.63;1001.14;8;0;0
2019-12-09 01:28:31;7.5;1001.13;9;0;0
2019-12-09 01:29:01;7.55;1001.18;9;0;0
2019-12-09 01:29:31;7.57;1001.13;9;0;0
2019-12-09 01:30:01;7.62;1001.11;8;0;0
2019-12-09 01:30:32;7.59;1001.14;8;0;0
2019-12-09 01:31:01;7.72;1001.12;8;0;0
2019-12-09 01:31:31;7.57;1001.13;7;0;0
2019-12-09 01:32:01;7.46;1001.18;9;0;0
2019-12-09 01:32:31;7.43;1001.19;9;0;0
2019-12-09 01:33:02;7.59;1001.16;9;0;0
2019-12-09 01:33:31;7.68;1001.13;9;0;0
2019-12-09 01:34:01;7.49;1001.15;9;0;0
2019-12-09 01:34:31;7.43;1001.16;8;0;0
2019-12-09 01:35:01;7.52;1001.15;8;0;0
2019-12-09 01:35:31;7.56;1001.12;8;0;0
2019-12-09 01:36:02;7.46;1001.11;8;0;0
2019-12-09 01:36:31;7.55;1001.08;8;0;0
2019-12-09 01:37:01;7.55;1001.06;8;0;0
2019-12-09 01:37:31;7.53;1001.05;7;0;0
2019-12-09 01:38:02;7.49;1001.05;7;0;0
2019-12-09 01:38:31;7.52;1001.07;8;0;0
2019-12-09 01:39:01;7.58;1001.11;8;0;0
2019-12-09 01:39:32;7.61;1001.12;8;0;0
2019-12-09 01:40:01;7.48;1001.09;8;0;0
2019-12-09 01:40:31;7.51;1001.1;8;0;0
2019-12-09 01:41:01;7.49;1001.12;8;0;0
2019-12-09 01:41:31;7.49;1001.13;7;0;0
2019-12-09 01:42:01;7.47;1001.14;8;0;0
2019-12-09 01:42:31;7.45;1001.16;7;0;0
2019-12-09 01:43:01;7.43;1001.17;8;0;0
2019-12-09 01:43:31;7.4;1001.15;7;0;0
2019-12-09 01:44:01;7.48;1001.13;8;0;0
2019-12-09 01:44:31;7.48;1001.11;9;0;0
2019-12-09 01:45:01;7.55;1001.14;8;0;0
2019-12-09 01:45:31;7.45;1001.12;9;0;0
2019-12-09 01:46:01;7.31;1001.15;9;0;0
2019-12-09 01:46:31;7.46;1001.15;8;0;0
2019-12-09 01:47:01;7.4;1001.14;7;0;0
2019-12-09 01:47:32;7.51;1001.16;6;0;0
2019-12-09 01:48:01;7.42;1001.15;7;0;0
2019-12-09 01:48:31;7.46;1001.13;7;0;0
2019-12-09 01:49:01;7.54;1001.16;6;0;0
2019-12-09 01:49:31;7.47;1001.11;7;0;0
2019-12-09 01:50:01;7.44;1001.09;7;0;0
2019-12-09 01:50:31;7.51;1001.06;7;0;0
2019-12-09 01:51:01;7.47;1001.06;8;0;0
2019-12-09 01:51:31;7.34;1001.06;7;0;0
2019-12-09 01:52:01;7.37;1001.08;8;0;0
2019-12-09 01:52:31;7.34;1001.06;7;0;0
2019-12-09 01:53:01;7.28;1001.11;8;0;0
2019-12-09 01:53:31;7.36;1001.13;8;0;0
2019-12-09 01:54:01;7.44;1001.14;8;0;0
2019-12-09 01:54:31;7.45;1001.18;8;0;0
2019-12-09 01:55:01;7.43;1001.27;8;0;0
2019-12-09 01:55:31;7.42;1001.3;8;0;0
2019-12-09 01:56:01;7.49;1001.34;7;0;0
2019-12-09 01:56:31;7.53;1001.3;8;0;0
2019-12-09 01:57:01;7.49;1001.33;8;0;0
2019-12-09 01:57:32;7.23;1001.36;7;0;0
2019-12-09 01:58:01;7.37;1001.42;7;0;0
2019-12-09 01:58:31;7.33;1001.4;7;0;0
2019-12-09 01:59:01;7.32;1001.46;8;0;0
2019-12-09 01:59:31;7.28;1001.43;8;0;0
2019-12-09 02:00:02;7.33;1001.41;8;0;0
2019-12-09 02:00:31;7.26;1001.38;8;0;0
2019-12-09 02:01:01;7.53;1001.36;8;0;0
2019-12-09 02:01:31;7.36;1001.31;8;0;0
2019-12-09 02:02:01;7.35;1001.27;8;0;0
2019-12-09 02:02:31;7.2;1001.3;8;0;0
2019-12-09 02:03:01;7.22;1001.21;7;0;0
2019-12-09 02:03:32;7.19;1001.21;7;0;0
2019-12-09 02:04:01;7.26;1001.26;8;0;0
2019-12-09 02:04:31;7.29;1001.27;7;0;0
2019-12-09 02:05:01;7.26;1001.25;8;0;0
2019-12-09 02:05:31;7.25;1001.27;8;0;0
2019-12-09 02:06:01;7.3;1001.26;8;0;0
2019-12-09 02:06:32;7.29;1001.22;8;0;0
2019-12-09 02:07:01;7.34;1001.17;7;0;0
2019-12-09 02:07:31;7.3;1001.15;7;0;0
2019-12-09 02:08:01;7.18;1001.12;7;0;0
2019-12-09 02:08:31;7.28;1001.12;6;0;0
2019-12-09 02:09:01;7.21;1001.15;7;0;0
2019-12-09 02:09:31;7.22;1001.18;7;0;0
2019-12-09 02:10:02;7.27;1001.18;9;0;0
2019-12-09 02:10:31;7.2;1001.13;8;0;0
2019-12-09 02:11:01;7.31;1001.11;7;0;0
2019-12-09 02:11:31;7.35;1001.07;7;0;0
2019-12-09 02:12:01;7.27;1001.06;8;0;0
2019-12-09 02:12:31;7.18;1001.05;9;0;0
2019-12-09 02:13:01;6.97;1001.04;7;0;0
2019-12-09 02:13:31;7.1;1001.13;8;0;0
2019-12-09 02:14:01;7.09;1001.15;8;0;0
2019-12-09 02:14:32;7.13;1001.23;8;0;0
2019-12-09 02:15:01;7.18;1001.26;8;0;0
2019-12-09 02:15:31;7.1;1001.23;7;0;0
2019-12-09 02:16:01;7.2;1001.3;7;0;0
2019-12-09 02:16:31;7.17;1001.36;8;0;0
2019-12-09 02:17:01;7.24;1001.42;7;0;0
2019-12-09 02:17:31;7.22;1001.55;8;0;0
2019-12-09 02:18:01;7.25;1001.54;10;0;0
2019-12-09 02:18:31;7.22;1001.64;8;0;0
2019-12-09 02:19:01;7.17;1001.62;8;0;0
2019-12-09 02:19:31;7.21;1001.58;7;0;0
2019-12-09 02:20:01;7.05;1001.56;9;0;0
2019-12-09 02:20:31;7.19;1001.61;7;0;0
2019-12-09 02:21:01;7.02;1001.56;8;0;0
2019-12-09 02:21:31;6.96;1001.56;6;0;0
2019-12-09 02:22:01;7.06;1001.55;7;0;0
2019-12-09 02:22:31;7.13;1001.57;7;0;0
2019-12-09 02:23:01;7.09;1001.6;8;0;0
2019-12-09 02:23:31;7.02;1001.6;7;0;0
2019-12-09 02:24:01;6.96;1001.61;7;0;0
2019-12-09 02:24:32;7.05;1001.63;8;0;0
2019-12-09 02:25:01;7.02;1001.62;9;0;0
2019-12-09 02:25:31;6.91;1001.66;8;0;0
2019-12-09 02:26:02;6.96;1001.64;8;0;0
2019-12-09 02:26:31;6.97;1001.67;7;0;0
2019-12-09 02:27:01;7.1;1001.67;8;0;0
2019-12-09 02:27:31;7.01;1001.69;8;0;0
2019-12-09 02:28:01;6.9;1001.63;8;0;0
2019-12-09 02:28:31;6.87;1001.6;7;0;0
2019-12-09 02:29:01;6.93;1001.62;7;0;0
2019-12-09 02:29:31;6.88;1001.67;8;0;0
2019-12-09 02:30:01;6.9;1001.73;8;0;0
2019-12-09 02:30:31;7.01;1001.68;8;0;0
2019-12-09 02:31:01;7.09;1001.68;7;0;0
2019-12-09 02:31:31;6.95;1001.64;7;0;0
2019-12-09 02:32:01;6.94;1001.6;8;0;0
2019-12-09 02:32:31;7.04;1001.57;8;0;0
2019-12-09 02:33:02;7;1001.55;7;0;0
2019-12-09 02:33:32;7.04;1001.48;8;0;0
2019-12-09 02:34:01;7.1;1001.48;8;0;0
2019-12-09 02:34:31;6.99;1001.51;8;0;0
2019-12-09 02:35:01;6.97;1001.47;8;0;0
2019-12-09 02:35:31;7.05;1001.47;8;0;0
2019-12-09 02:36:01;6.92;1001.53;7;0;0
2019-12-09 02:36:31;7.03;1001.52;7;0;0
2019-12-09 02:37:01;7.02;1001.56;8;0;0
2019-12-09 02:37:31;6.98;1001.6;8;0;0
2019-12-09 02:38:01;7.04;1001.63;8;0;0
2019-12-09 02:38:31;6.96;1001.66;7;0;0
2019-12-09 02:39:01;6.9;1001.65;8;0;0
2019-12-09 02:39:31;6.97;1001.68;7;0;0
2019-12-09 02:40:02;7.03;1001.57;7;0;0
2019-12-09 02:40:31;6.99;1001.56;6;0;0
2019-12-09 02:41:01;7.06;1001.47;7;0;0
2019-12-09 02:41:32;6.97;1001.47;8;0;0
2019-12-09 02:42:01;6.94;1001.45;7;0;0
2019-12-09 02:42:31;6.81;1001.4;8;0;0
2019-12-09 02:43:01;6.87;1001.44;7;0;0
2019-12-09 02:43:31;6.91;1001.44;8;0;0
2019-12-09 02:44:01;6.94;1001.35;8;0;0
2019-12-09 02:44:31;6.88;1001.38;8;0;0
2019-12-09 02:45:02;6.91;1001.43;8;0;0
2019-12-09 02:45:31;6.85;1001.46;7;0;0
2019-12-09 02:46:01;6.94;1001.47;7;0;0
2019-12-09 02:46:31;6.88;1001.46;7;0;0
2019-12-09 02:47:01;6.91;1001.42;7;0;0
2019-12-09 02:47:31;6.87;1001.42;7;0;0
2019-12-09 02:48:01;6.86;1001.43;7;0;0
2019-12-09 02:48:31;6.89;1001.41;8;0;0
2019-12-09 02:49:01;6.88;1001.45;7;0;0
2019-12-09 02:49:31;7;1001.45;7;0;0
2019-12-09 02:50:01;6.94;1001.5;8;0;0
2019-12-09 02:50:32;6.88;1001.48;8;0;0
2019-12-09 02:51:01;6.94;1001.42;8;0;0
2019-12-09 02:51:31;6.83;1001.41;7;0;0
2019-12-09 02:52:01;6.77;1001.37;8;0;0
2019-12-09 02:52:31;6.85;1001.39;8;0;0
2019-12-09 02:53:01;6.84;1001.39;8;0;0
2019-12-09 02:53:31;6.92;1001.36;7;0;0
2019-12-09 02:54:01;6.91;1001.39;7;0;0
2019-12-09 02:54:31;6.92;1001.4;8;0;0
2019-12-09 02:55:01;6.83;1001.52;9;0;0
2019-12-09 02:55:31;6.75;1001.46;8;0;0
2019-12-09 02:56:01;6.75;1001.45;7;0;0
2019-12-09 02:56:31;6.75;1001.47;8;0;0
2019-12-09 02:57:01;6.79;1001.43;7;0;0
2019-12-09 02:57:31;6.93;1001.41;8;0;0
2019-12-09 02:58:01;6.83;1001.46;8;0;0
2019-12-09 02:58:32;6.81;1001.42;8;0;0
2019-12-09 02:59:02;6.82;1001.47;9;0;0
2019-12-09 02:59:31;6.76;1001.35;8;0;0
2019-12-09 03:00:01;6.8;1001.43;8;0;0
2019-12-09 03:00:31;6.86;1001.49;9;0;0
2019-12-09 03:01:01;6.78;1001.49;8;0;0
2019-12-09 03:01:31;6.8;1001.5;9;0;0
2019-12-09 03:02:01;6.92;1001.49;9;0;0
2019-12-09 03:02:31;6.86;1001.45;8;0;0
2019-12-09 03:03:01;6.95;1001.37;9;0;0
2019-12-09 03:03:31;6.79;1001.33;9;0;0
2019-12-09 03:04:01;6.79;1001.25;8;0;0
2019-12-09 03:04:32;6.88;1001.2;8;0;0
2019-12-09 03:05:01;6.84;1001.21;9;0;0
2019-12-09 03:05:31;6.91;1001.17;8;0;0
2019-12-09 03:06:01;6.78;1001.16;8;0;0
2019-12-09 03:06:32;6.78;1001.13;9;0;0
2019-12-09 03:07:01;6.72;1001.1;8;0;0
2019-12-09 03:07:33;6.8;1001.13;7;0;0
2019-12-09 03:08:01;6.84;1001.14;8;0;0
2019-12-09 03:08:31;6.72;1001.13;9;0;0
2019-12-09 03:09:01;6.74;1001.13;8;0;0
2019-12-09 03:09:31;6.71;1001.11;8;0;0
2019-12-09 03:10:01;6.79;1001.13;9;0;0
2019-12-09 03:10:31;6.79;1001.12;9;0;0
2019-12-09 03:11:01;6.73;1001.14;9;0;0
2019-12-09 03:11:31;6.87;1001.14;8;0;0
2019-12-09 03:12:01;6.92;1001.12;9;0;0
2019-12-09 03:12:31;7.03;1001.15;9;0;0
2019-12-09 03:13:01;6.94;1001.25;9;0;0
2019-12-09 03:13:31;6.92;1001.24;8;0;0
2019-12-09 03:14:01;6.91;1001.34;8;0;0
2019-12-09 03:14:31;6.94;1001.42;8;0;0
2019-12-09 03:15:01;6.98;1001.43;8;0;0
2019-12-09 03:15:32;7.07;1001.4;9;0;0
2019-12-09 03:16:01;7.01;1001.37;7;0;0
2019-12-09 03:16:31;7.03;1001.37;8;0;0
2019-12-09 03:17:01;7.1;1001.43;8;0;0
2019-12-09 03:17:31;7.16;1001.46;8;0;0
2019-12-09 03:18:01;7.11;1001.45;9;0;0
2019-12-09 03:18:31;7.08;1001.43;8;0;0
2019-12-09 03:19:02;7.1;1001.51;8;0;0
2019-12-09 03:19:31;7.04;1001.49;9;0;0
2019-12-09 03:20:01;7.09;1001.48;7;0;0
2019-12-09 03:20:31;7.13;1001.48;8;0;0
2019-12-09 03:21:01;7.1;1001.56;8;0;0
2019-12-09 03:21:31;7.2;1001.53;8;0;0
2019-12-09 03:22:02;7.19;1001.51;8;0;0
2019-12-09 03:22:36;7.08;1001.48;8;0;0
2019-12-09 03:23:01;7.05;1001.46;9;0;0
2019-12-09 03:23:31;7.18;1001.49;8;0;0
2019-12-09 03:24:01;7.02;1001.43;9;0;0
2019-12-09 03:24:31;7.1;1001.42;8;0;0
2019-12-09 03:25:01;7.05;1001.51;10;0;0
2019-12-09 03:25:31;7;1001.54;9;0;0
2019-12-09 03:26:01;6.95;1001.5;8;0;0
2019-12-09 03:26:31;6.98;1001.55;8;0;0
2019-12-09 03:27:01;6.92;1001.56;9;0;0
2019-12-09 03:27:31;6.94;1001.54;8;0;0
2019-12-09 03:28:01;6.91;1001.49;9;0;0
2019-12-09 03:28:32;6.91;1001.48;9;0;0
2019-12-09 03:29:01;6.86;1001.48;8;0;0
2019-12-09 03:29:31;6.95;1001.52;9;0;0
2019-12-09 03:30:01;6.93;1001.51;9;0;0
2019-12-09 03:30:31;6.92;1001.58;9;0;0
2019-12-09 03:31:02;6.83;1001.58;8;0;0
2019-12-09 03:31:31;6.84;1001.64;8;0;0
2019-12-09 03:32:01;6.82;1001.63;9;0;0
2019-12-09 03:32:31;6.75;1001.63;8;0;0
2019-12-09 03:33:01;6.72;1001.66;9;0;0
2019-12-09 03:33:31;6.76;1001.63;8;0;0
2019-12-09 03:34:01;6.73;1001.63;8;0;0
2019-12-09 03:34:32;6.66;1001.63;9;0;0
2019-12-09 03:35:01;6.77;1001.71;9;0;0
2019-12-09 03:35:31;6.77;1001.69;9;0;0
2019-12-09 03:36:01;6.59;1001.72;9;0;0
2019-12-09 03:36:31;6.72;1001.64;9;0;0
2019-12-09 03:37:01;6.71;1001.74;8;0;0
2019-12-09 03:37:31;6.67;1001.77;8;0;0
2019-12-09 03:38:01;6.55;1001.8;8;0;0
2019-12-09 03:38:31;6.7;1001.85;8;0;0
2019-12-09 03:39:01;6.71;1001.91;8;0;0
2019-12-09 03:39:31;6.66;1001.92;8;0;0
2019-12-09 03:40:01;6.65;1001.94;8;0;0
2019-12-09 03:40:31;6.67;1001.96;8;0;0
2019-12-09 03:41:02;6.8;1001.97;9;0;0
2019-12-09 03:41:32;6.73;1001.98;8;0;0
2019-12-09 03:42:01;6.74;1001.99;9;0;0
2019-12-09 03:42:31;6.67;1001.95;8;0;0
2019-12-09 03:43:01;6.52;1001.97;9;0;0
2019-12-09 03:43:31;6.57;1001.97;9;0;0
2019-12-09 03:44:01;6.53;1001.98;9;0;0
2019-12-09 03:44:31;6.67;1001.97;8;0;0
2019-12-09 03:45:01;6.7;1001.95;8;0;0
2019-12-09 03:45:31;6.49;1001.96;8;0;0
2019-12-09 03:46:02;6.48;1001.97;7;0;0
2019-12-09 03:46:31;6.61;1001.97;7;0;0
2019-12-09 03:47:01;6.5;1001.98;7;0;0
2019-12-09 03:47:31;6.52;1001.99;7;0;0
2019-12-09 03:48:01;6.5;1002;8;0;0
2019-12-09 03:48:32;6.61;1001.99;8;0;0
2019-12-09 03:49:01;6.6;1001.99;9;0;0
2019-12-09 03:49:31;6.48;1001.97;8;0;0
2019-12-09 03:50:01;6.54;1001.97;8;0;0
2019-12-09 03:50:31;6.56;1001.96;10;0;0
2019-12-09 03:51:01;6.6;1001.93;9;0;0
2019-12-09 03:51:31;6.5;1001.93;9;0;0
2019-12-09 03:52:01;6.31;1001.92;9;0;0
2019-12-09 03:52:32;6.45;1001.87;8;0;0
2019-12-09 03:53:01;6.43;1001.85;9;0;0
2019-12-09 03:53:31;6.35;1001.87;9;0;0
2019-12-09 03:54:01;6.5;1001.89;9;0;0
2019-12-09 03:54:31;6.53;1001.83;9;2.75;272
2019-12-09 03:55:01;6.71;1001.77;9;0;0
2019-12-09 03:55:31;6.72;1001.85;9;0;0
2019-12-09 03:56:01;6.8;1001.86;9;0;0
2019-12-09 03:56:32;6.78;1001.85;10;0;0
2019-12-09 03:57:01;6.88;1001.87;9;0;0
2019-12-09 03:57:31;6.85;1001.88;8;0;0
2019-12-09 03:58:01;6.94;1001.88;9;0;0
2019-12-09 03:58:32;6.87;1001.89;9;0;0
2019-12-09 03:59:01;6.89;1001.89;8;0;0
2019-12-09 03:59:31;6.97;1001.87;9;0;0
2019-12-09 04:00:01;7.02;1001.83;8;0;0
2019-12-09 04:00:31;7.02;1001.75;9;0;0
2019-12-09 04:01:01;7.19;1001.79;9;0;0
2019-12-09 04:01:32;7.08;1001.83;9;0;0
2019-12-09 04:02:01;7.16;1001.83;9;0;0
2019-12-09 04:02:31;7.04;1001.8;8;0;0
2019-12-09 04:03:01;7.09;1001.79;7;0;0
2019-12-09 04:03:31;7.09;1001.76;8;0;0
2019-12-09 04:04:01;7.22;1001.78;9;0;0
2019-12-09 04:04:33;7.32;1001.77;9;0;0
2019-12-09 04:05:01;7.32;1001.75;8;0;0
2019-12-09 04:05:31;7.36;1001.72;9;0;0
2019-12-09 04:06:01;7.34;1001.77;10;0;0
2019-12-09 04:06:31;7.25;1001.8;9;0;0
2019-12-09 04:07:01;7.15;1001.78;9;0;0
2019-12-09 04:07:31;7.1;1001.75;9;0;0
2019-12-09 04:08:01;7.1;1001.65;8;0;0
2019-12-09 04:08:32;7.15;1001.56;9;0;0
2019-12-09 04:09:01;7.2;1001.63;8;0;0
2019-12-09 04:09:31;7.17;1001.61;9;0;0
2019-12-09 04:10:01;7.23;1001.54;8;0;0
2019-12-09 04:10:31;7.21;1001.56;9;0;0
2019-12-09 04:11:01;7.18;1001.6;9;0;0
2019-12-09 04:11:31;7.27;1001.62;10;0;0
2019-12-09 04:12:01;7.3;1001.59;9;0;0
2019-12-09 04:12:31;7.32;1001.56;9;0;0
2019-12-09 04:13:01;7.38;1001.52;8;0;0
2019-12-09 04:13:33;7.4;1001.51;8;0;0
2019-12-09 04:14:01;7.46;1001.57;8;0;0
2019-12-09 04:14:31;7.46;1001.53;8;0;0
2019-12-09 04:15:01;7.43;1001.55;8;0;0
2019-12-09 04:15:31;7.47;1001.49;8;0;0
2019-12-09 04:16:01;7.3;1001.48;8;0;0
2019-12-09 04:16:32;7.36;1001.46;8;0;0
2019-12-09 04:17:01;7.35;1001.48;7;0;0
2019-12-09 04:17:31;7.46;1001.47;9;0;0
2019-12-09 04:18:01;7.3;1001.51;9;0;0
2019-12-09 04:18:31;7.28;1001.52;9;0;0
2019-12-09 04:19:01;7.41;1001.52;10;0;0
2019-12-09 04:19:31;7.47;1001.48;10;0;0
2019-12-09 04:20:01;7.26;1001.52;9;0;0
2019-12-09 04:20:31;7.17;1001.53;8;0;0
2019-12-09 04:21:02;7.37;1001.58;9;0;0
2019-12-09 04:21:31;7.39;1001.57;8;0;0
2019-12-09 04:22:01;7.32;1001.58;8;0;0
2019-12-09 04:22:31;7.3;1001.61;8;0;0
2019-12-09 04:23:01;7.37;1001.59;9;0;0
2019-12-09 04:23:31;7.32;1001.56;8;0;0
2019-12-09 04:24:01;7.24;1001.59;9;0;0
2019-12-09 04:24:32;7.35;1001.64;9;0;0
2019-12-09 04:25:01;7.39;1001.58;10;0;0
2019-12-09 04:25:31;7.34;1001.54;8;0;0
2019-12-09 04:26:01;7.47;1001.61;8;0;0
2019-12-09 04:26:31;7.52;1001.61;9;0;0
2019-12-09 04:27:01;7.41;1001.58;9;0;0
2019-12-09 04:27:31;7.37;1001.52;9;0;0
2019-12-09 04:28:01;7.55;1001.47;9;0;0
2019-12-09 04:28:31;7.39;1001.54;9;0;0
2019-12-09 04:29:01;7.47;1001.58;9;0;0
2019-12-09 04:29:31;7.4;1001.6;8;0;0
2019-12-09 04:30:01;7.31;1001.58;8;0;0
2019-12-09 04:30:31;7.34;1001.58;8;0;0
2019-12-09 04:31:02;7.35;1001.63;9;0;0
2019-12-09 04:31:31;7.36;1001.64;9;0;0
2019-12-09 04:32:01;7.59;1001.56;8;0;0
2019-12-09 04:32:31;7.46;1001.55;7;0;0
2019-12-09 04:33:02;7.4;1001.66;8;0;0
2019-12-09 04:33:31;7.52;1001.65;8;0;0
2019-12-09 04:34:01;7.54;1001.63;7;0;0
2019-12-09 04:34:31;7.44;1001.65;8;0;0
2019-12-09 04:35:01;7.5;1001.7;8;0;0
2019-12-09 04:35:31;7.35;1001.66;8;0;0
2019-12-09 04:36:01;7.33;1001.62;9;0;0
2019-12-09 04:36:31;7.48;1001.63;9;0;0
2019-12-09 04:37:01;7.32;1001.73;9;0;0
2019-12-09 04:37:31;7.26;1001.76;9;0;0
2019-12-09 04:38:01;7.33;1001.71;10;0;0
2019-12-09 04:38:31;7.32;1001.63;8;0;0
2019-12-09 04:39:01;7.23;1001.65;8;0;0
2019-12-09 04:39:31;7.22;1001.64;7;0;0
2019-12-09 04:40:01;7.31;1001.58;7;0;0
2019-12-09 04:40:32;7.46;1001.7;8;0;0
2019-12-09 04:41:01;7.28;1001.72;8;0;0
2019-12-09 04:41:31;7.31;1001.76;9;0;0
2019-12-09 04:42:01;7.34;1001.78;8;0;0
2019-12-09 04:42:31;7.32;1001.81;9;0;0
2019-12-09 04:43:01;7.35;1001.82;9;0;0
2019-12-09 04:43:31;7.38;1001.77;9;0;0
2019-12-09 04:44:01;7.51;1001.74;9;0;0
2019-12-09 04:44:31;7.26;1001.66;9;0;0
2019-12-09 04:45:01;7.23;1001.67;8;0;0
2019-12-09 04:45:31;7.25;1001.65;9;0;0
2019-12-09 04:46:01;7.2;1001.67;9;0;0
2019-12-09 04:46:32;7.24;1001.76;8;0;0
2019-12-09 04:47:01;7.33;1001.8;8;0;0
2019-12-09 04:47:31;7.27;1001.8;9;0;0
2019-12-09 04:48:01;7.37;1001.83;8;0;0
2019-12-09 04:48:31;7.4;1001.82;9;0;0
2019-12-09 04:49:01;7.26;1001.84;9;0;0
2019-12-09 04:49:31;7.27;1001.86;9;0;0
2019-12-09 04:50:01;7.27;1001.85;8;0;0
2019-12-09 04:50:31;7.22;1001.84;9;0;0
2019-12-09 04:51:01;7.34;1001.85;8;0;0
2019-12-09 04:51:32;7.31;1001.89;8;0;0
2019-12-09 04:52:01;7.34;1001.9;9;0;0
2019-12-09 04:52:31;7.25;1001.91;9;0;0
2019-12-09 04:53:01;7.35;1001.9;9;0;0
2019-12-09 04:53:31;7.26;1001.93;8;0;0
2019-12-09 04:54:02;7.21;1001.93;8;0;0
2019-12-09 04:54:31;7.22;1001.9;9;0;0
2019-12-09 04:55:01;7.21;1001.89;8;0;0
2019-12-09 04:55:31;7.22;1001.93;8;0;0
2019-12-09 04:56:01;7.29;1001.9;9;0;0
2019-12-09 04:56:31;7.42;1001.89;8;0;0
2019-12-09 04:57:01;7.33;1001.89;9;0;0
2019-12-09 04:57:31;7.3;1001.89;9;0;0
2019-12-09 04:58:01;7.33;1001.88;9;0;0
2019-12-09 04:58:31;7.42;1001.84;7;0;0
2019-12-09 04:59:01;7.28;1001.87;7;0;0
2019-12-09 04:59:32;7.34;1001.85;9;0;0
2019-12-09 05:00:01;7.38;1001.84;9;0;0
2019-12-09 05:00:31;7.39;1001.83;9;0;0
2019-12-09 05:01:01;7.36;1001.84;8;0;0
2019-12-09 05:01:31;7.35;1001.85;8;0;0
2019-12-09 05:02:01;7.32;1001.83;8;0;0
2019-12-09 05:02:31;7.35;1001.81;9;0;0
2019-12-09 05:03:01;7.33;1001.75;10;0;0
2019-12-09 05:03:32;7.21;1001.78;9;0;0
2019-12-09 05:04:01;7.23;1001.73;9;0;0
2019-12-09 05:04:31;7.32;1001.78;10;0;0
2019-12-09 05:05:01;7.41;1001.74;9;0;0
2019-12-09 05:05:32;7.35;1001.74;10;0;0
2019-12-09 05:06:01;7.28;1001.72;9;0;0
2019-12-09 05:06:31;7.51;1001.71;9;0;0
2019-12-09 05:07:01;7.46;1001.72;8;0;0
2019-12-09 05:07:31;7.53;1001.67;8;0;0